sat.trackr.live / text

‹ back to catalog

STARLINK-31669

NORAD 59515 · 2024-073E

PAYLOAD ACTIVE UNKNOWN

§ Identity

Operator
Country
US
Launch date
2024-04-17
Launch site
AFETR
Launch vehicle
Mass (kg)
RCS (m²)

Purposes: comms

External: N2YO · Heavens-Above · Gunter

§ Orbital elements

Epoch: 2026-05-24T13:43:44.274144Z

Period
94.27 min
Inclination
43.0012°
Eccentricity
0.0001156
Mean motion
15.27578606 rev/d
Perigee alt
482.3 km
Apogee alt
483.8 km
Semi-major
6,861.2 km
B*
2.4563e-5
RAAN
249.2371°
Arg perigee
267.8660°
Mean anomaly
92.2059°
Rev number
11,778

§ Raw data

STARLINK-316691 59515U 24073E   26144.57204021  .00000414  00000+0  24563-4 0  99912 59515  43.0012 249.2371 0001156 267.8660  92.2059 15.27578606117781

JSON: /api/v1/satellites/59515 · /tle

For live sub-satellite position, see the globe view (requires WebGL).

§ Visibility from observer

Set your observer location to see the next 7 days of passes ≥ 10°. The values pass through the URL so the page stays shareable.

No JS? Fill the form by hand. The geolocation button needs JavaScript.